TimeCST,TemperatureF,Dew PointF,Humidity,Sea Level PressureIn,VisibilityMPH,Wind Direction,Wind SpeedMPH,Gust SpeedMPH,PrecipitationIn,Events,Conditions,WindDirDegrees,DateUTC
12:52 AM,63.0,55.9,78,30.11,10.0,Calm,Calm,-,N/A,,Clear,0,2012-11-07 06:52:00
1:52 AM,62.1,57.9,86,30.11,10.0,Calm,Calm,-,N/A,,Clear,0,2012-11-07 07:52:00
2:52 AM,62.1,57.0,84,30.10,10.0,Calm,Calm,-,N/A,,Clear,0,2012-11-07 08:52:00
3:52 AM,61.0,55.9,83,30.11,10.0,Calm,Calm,-,N/A,,Clear,0,2012-11-07 09:52:00
4:52 AM,60.8,55.4,82,30.11,10.0,Calm,Calm,-,N/A,,Clear,0,2012-11-07 10:52:00
5:52 AM,60.1,55.9,86,30.11,10.0,Calm,Calm,-,N/A,,Clear,0,2012-11-07 11:52:00
6:52 AM,57.9,55.0,90,30.12,10.0,Calm,Calm,-,N/A,,Clear,0,2012-11-07 12:52:00
7:52 AM,66.0,60.1,81,30.15,10.0,Calm,Calm,-,N/A,,Clear,0,2012-11-07 13:52:00
8:52 AM,77.0,57.9,52,30.16,10.0,SE,5.8,-,N/A,,Clear,140,2012-11-07 14:52:00
9:52 AM,81.0,55.9,42,30.16,10.0,SSE,9.2,-,N/A,,Clear,150,2012-11-07 15:52:00
10:52 AM,82.9,51.1,33,30.15,10.0,SSW,5.8,-,N/A,,Clear,210,2012-11-07 16:52:00
11:52 AM,86.0,51.1,30,30.12,10.0,SSE,4.6,-,N/A,,Clear,150,2012-11-07 17:52:00
12:52 PM,87.1,52.0,30,30.08,10.0,SSE,8.1,-,N/A,,Clear,160,2012-11-07 18:52:00
1:52 PM,87.1,48.0,26,30.06,10.0,East,8.1,17.3,N/A,,Clear,90,2012-11-07 19:52:00
2:52 PM,87.1,52.0,30,30.04,10.0,ESE,12.7,18.4,N/A,,Clear,110,2012-11-07 20:52:00
3:52 PM,84.9,51.1,31,30.04,10.0,East,16.1,-,N/A,,Clear,100,2012-11-07 21:52:00
4:52 PM,82.0,52.0,35,30.05,10.0,ESE,15.0,-,N/A,,Clear,110,2012-11-07 22:52:00
5:52 PM,75.9,55.0,48,30.06,10.0,ESE,11.5,-,N/A,,Clear,110,2012-11-07 23:52:00
6:52 PM,73.0,55.9,55,30.07,10.0,SE,9.2,-,N/A,,Clear,130,2012-11-08 00:52:00
7:52 PM,71.1,57.9,63,30.09,10.0,SE,8.1,-,N/A,,Clear,140,2012-11-08 01:52:00
8:52 PM,66.9,57.0,70,30.10,10.0,SE,8.1,-,N/A,,Clear,140,2012-11-08 02:52:00
9:52 PM,62.1,55.0,78,30.11,10.0,SSE,8.1,-,N/A,,Clear,150,2012-11-08 03:52:00
10:52 PM,62.1,54.0,75,30.11,10.0,South,6.9,-,N/A,,Clear,170,2012-11-08 04:52:00
11:52 PM,61.0,54.0,78,30.10,10.0,SSE,6.9,-,N/A,,Clear,160,2012-11-08 05:52:00